Weather History for Pecs, Hungary

Change the Weather History Date:

Thursday, November 1, 2012

  Actual Average Record
Temperature  
Mean Temperature 49 °F -  
Max Temperature 58 °F 48 °F - ()
Min Temperature 40 °F 36 °F - ()
Degree Days  
Heating Degree Days 16    
Moisture  
Dew Point 46 °F    
Average Humidity 88    
Maximum Humidity 94    
Minimum Humidity 71    
Precipitation  
Precipitation 0.01 in 0.07 in - ()
Sea Level Pressure  
Sea Level Pressure 29.50 in    
Wind  
Wind Speed 11 mph ()    
Max Wind Speed 17 mph    
Max Gust Speed 29 mph    
Visibility 6.8 miles    
Events Rain    
T = Trace of Precipitation, MM = Missing Value Source: Averaged Metar Reports

Daily Weather History Graph

Daily Weather History Graph

Search for Another Location

Airport:

Trip Planner

Search our weather history database for the weather conditions in past years. The results will help you decide how hot, cold, wet, or windy it might be!

Date:

Astronomy

Nov. 01, 2012 Rise Set
Actual Time 6:27 AM CET 4:32 PM CET
Civil Twilight 5:56 AM CET 5:03 PM CET
Nautical Twilight 5:21 AM CET 5:39 PM CET
Astronomical Twilight 4:46 AM CET 6:13 PM CET
Moon 6:08 PM CET (11/1) 8:52 AM CET (11/1)
Length of Visible Light 11h 07m
Length of Day
10h 04m
Waning Gibbous, 94% of the Moon is Illuminated
Nov 1
Waning Gibbous
Nov 7
Last Quarter
Nov 13
New
Nov 20
First Quarter
Nov 28
Full

Hourly Weather History & Observations

Time (CET) Temp. Windchill Dew Point Humidity Pressure Visibility Wind Dir Wind Speed Gust Speed Precip Events Conditions
12:45 AM 41.0 °F 33.5 °F 37.4 °F 87% 29.68 in - East 13.8 mph - N/A   Clear
1:00 AM 41 °F - 37 °F 81% 29.71 in 19 mi East 13.4 mph - -   Partly Cloudy
1:45 AM 41.0 °F 32.5 °F 37.4 °F 87% 29.65 in - East 17.3 mph - N/A   Clear
2:45 AM 42.8 °F 35.8 °F 37.4 °F 81% 29.62 in - East 13.8 mph - N/A   Clear
3:45 AM 42.8 °F 35.4 °F 39.2 °F 87% 29.56 in - East 15.0 mph - N/A   Clear
4:13 AM 44.6 °F 38.1 °F 39.2 °F 81% 29.56 in - East 13.8 mph - N/A   Unknown
4:45 AM 44.6 °F 37.8 °F 41.0 °F 87% 29.53 in 6.2 mi East 15.0 mph - N/A Rain Light Rain
5:15 AM 44.6 °F 38.1 °F 41.0 °F 87% 29.50 in 6.2 mi East 13.8 mph - N/A Rain Light Rain
5:45 AM 44.6 °F 37.8 °F 41.0 °F 87% 29.50 in 6.2 mi East 15.0 mph - N/A Rain Light Rain
6:00 AM - - - N/A% - 5.0 mi East 17.3 mph 28.8 mph N/A Rain Light Rain
6:15 AM 44.6 °F 37.8 °F 41.0 °F 87% 29.47 in 6.2 mi East 15.0 mph - N/A Rain Light Rain
6:45 AM 44.6 °F 38.4 °F 42.8 °F 93% 29.47 in 6.2 mi East 12.7 mph - N/A Rain Light Rain
7:00 AM 44 °F - 42 °F 91% 29.49 in 6 mi East 11.2 mph - - Rain Light Rain
7:15 AM 44.6 °F 38.8 °F 42.8 °F 93% 29.47 in 6.2 mi East 11.5 mph - N/A Rain Light Rain
7:45 AM 44.6 °F 38.4 °F 42.8 °F 93% 29.47 in 6.2 mi East 12.7 mph - N/A   Overcast
8:15 AM 46.4 °F 40.4 °F 44.6 °F 93% 29.47 in 6.2 mi East 13.8 mph - N/A   Overcast
8:45 AM 46.4 °F 40.7 °F 44.6 °F 93% 29.44 in 6.2 mi East 12.7 mph - N/A   Overcast
9:00 AM - - - N/A% - 6.2 mi East 15.0 mph - N/A   Mostly Cloudy
9:15 AM 48.2 °F - 44.6 °F 87% 29.44 in 6.2 mi East 13.8 mph - N/A   Mostly Cloudy
9:45 AM 48.2 °F - 46.4 °F 93% 29.44 in 6.2 mi East 12.7 mph - N/A   Mostly Cloudy
10:15 AM 50.0 °F - 48.2 °F 94% 29.44 in 6.2 mi East 12.7 mph - N/A   Mostly Cloudy
10:45 AM 51.8 °F - 48.2 °F 88% 29.44 in 6.2 mi East 11.5 mph - N/A   Mostly Cloudy
11:15 AM 53.6 °F - 50.0 °F 88% 29.44 in 6.2 mi ESE 12.7 mph - N/A   Mostly Cloudy
11:45 AM 55.4 °F - 50.0 °F 82% 29.42 in 6.2 mi ESE 12.7 mph - N/A   Mostly Cloudy
12:00 PM - - - N/A% - 6.2 mi East 15.0 mph - N/A   Mostly Cloudy
12:15 PM 55.4 °F - 50.0 °F 82% 29.42 in 6.2 mi ESE 10.4 mph - N/A   Mostly Cloudy
12:45 PM 55.4 °F - 50.0 °F 82% 29.42 in 6.2 mi SE 16.1 mph - N/A   Mostly Cloudy
1:00 PM 56 °F - 49 °F 71% 29.41 in 16 mi SE 15.7 mph - -   Partly Cloudy
1:15 PM 57.2 °F - 50.0 °F 77% 29.42 in 6.2 mi SE 12.7 mph - N/A Rain Light Rain
1:45 PM 57.2 °F - 50.0 °F 77% 29.39 in 6.2 mi SE 13.8 mph - N/A   Mostly Cloudy
2:15 PM 57.2 °F - 50.0 °F 77% 29.42 in 6.2 mi SE 12.7 mph - N/A   Mostly Cloudy
2:45 PM 57.2 °F - 50.0 °F 77% 29.42 in 6.2 mi SSE 12.7 mph - N/A   Mostly Cloudy
3:00 PM - - - N/A% - 6.2 mi SSE 12.7 mph - N/A   Mostly Cloudy
3:15 PM 57.2 °F - 51.8 °F 82% 29.42 in 6.2 mi South 6.9 mph - N/A Rain Light Rain
3:45 PM 55.4 °F - 51.8 °F 88% 29.44 in 6.2 mi South 5.8 mph - N/A Rain Light Rain
4:45 PM 53.6 °F - 51.8 °F 94% 29.44 in 6.2 mi South 3.5 mph - N/A   Mostly Cloudy
5:15 PM 53.6 °F - 51.8 °F 94% 29.47 in 6.2 mi SW 5.8 mph - N/A   Mostly Cloudy
5:45 PM 51.8 °F - 50.0 °F 94% 29.50 in 6.2 mi WSW 4.6 mph - N/A   Mostly Cloudy
6:15 PM 50.0 °F - 48.2 °F 94% 29.50 in 6.2 mi West 4.6 mph - N/A   Mostly Cloudy
6:45 PM 50.0 °F - 48.2 °F 94% 29.53 in 6.2 mi WNW 2.3 mph - N/A   Mostly Cloudy
7:00 PM 50 °F - 49 °F 94% 29.53 in 9 mi WNW 2.2 mph - -   Partly Cloudy
7:15 PM 51.8 °F - 48.2 °F 88% 29.53 in 6.2 mi West 4.6 mph - N/A   Mostly Cloudy
7:45 PM 51.8 °F - 48.2 °F 88% 29.53 in 6.2 mi West 4.6 mph - N/A   Mostly Cloudy
8:15 PM 50.0 °F - 48.2 °F 94% 29.56 in 6.2 mi West 3.5 mph - N/A   Mostly Cloudy
8:45 PM 50.0 °F - 48.2 °F 94% 29.56 in 6.2 mi SSW 4.6 mph - N/A   Mostly Cloudy
9:45 PM 50.0 °F - 48.2 °F 94% 29.59 in 6.2 mi SSW 6.9 mph - N/A   Mostly Cloudy
10:45 PM 50.0 °F - 46.4 °F 87% 29.59 in 6.2 mi SSW 8.1 mph - N/A   Partly Cloudy
11:45 PM 48.2 °F - 46.4 °F 93% 29.62 in - SSW 6.9 mph - N/A   Clear